SCP
0 0 0 0 0 1 0 1 0 0 0 0 0 0 0 0 0 0 0 0 0 0 0 0 0 0 0 0 0 0 0 0
0 0 0 0 0 0 0 0 0 0 0 0 0 0 0 0 0 0 0 0 0 0 0 0 0 0 0 0 0 0 0 0
0 0 0 0 1 1 1 1 1 0 1 0 0 0 0 0 0 0 0 0 0 0 0 0 0 0 0 0 0 0 0 0
0 0 0 0 1 1 1 4 3 1 1 0 0 0 0 0 0 0 0 0 0 0 0 0 0 0 0 0 0 0 0 0
0 0 0 0 1 2 5 7 5 4 2 1 1 0 0 0 0 0 0 0 0 0 0 0 0 0 1 1 1 0 0 1
0 0 0 0 1 2 5 5 5 4 1 2 0 1 0 0 0 0 0 0 0 0 0 0 0 0 1 0 2 2 2 2
0 0 0 0 1 2 4 5 3 2 2 2 1 2 0 0 0 0 0 0 0 0 0 0 1 0 2 4 3 2 3 1
0 0 0 0 1 3 6 6 3 2 3 3 1 1 1 0 0 1 0 0 0 0 0 3 4 4 1 1 3 4 1 0
0 0 0 0 1 3 6 5 4 3 4 1 1 1 1 1 1 1 1 1 1 1 0 2 3 2 0 1 1 0 0 0
0 0 0 0 4 7 5 5 5 4 2 2 1 1 1 1 2 1 1 1 1 1 1 3 2 1 0 0 0 0 0 0
0 0 0 0 3 7 8 8 6 4 3 3 3 3 2 1 2 1 1 1 1 2 2 2 1 0 0 0 0 0 0 0
0 0 0 0 5 5 5 8 6 4 3 2 3 2 1 1 2 2 2 2 1 1 1 0 0 0 0 0 0 -0 -0 0
0 0 0 2 5 7 5 6 6 3 2 1 1 2 4 2 2 1 1 1 1 0 0 0 0 0 0 0 0 -0 -0 -0
0 0 0 3 2 5 5 6 4 4 5 3 4 3 2 2 1 1 1 1 1 1 0 0 0 0 0 0 -0 0 0 0
0 0 2 2 2 4 7 6 5 4 5 3 2 2 1 1 2 2 1 1 0 0 0 0 0 0 0 0 0 0 0 0
0 0 1 3 2 4 5 4 5 4 3 2 1 1 2 2 3 1 1 0 0 0 0 0 0 0 0 0 0 0 0 0
0 0 0 3 3 3 5 6 4 4 3 2 1 3 3 2 1 1 0 0 0 0 0 0 0 0 0 0 0 0 0 0
0 0 3 7 2 3 5 4 4 3 2 2 3 3 2 1 0 0 0 0 0 0 0 0 0 0 0 0 0 0 0 0
0 1 2 8 4 3 5 6 5 3 3 3 3 2 1 0 0 0 0 0 0 0 0 0 0 0 0 0 0 0 0 0
0 1 5 1 4 3 6 5 6 5 4 3 1 1 0 0 0 0 0 0 0 0 0 0 0 0 0 0 0 0 0 0
Wind_Speed_500mb
39 34 37 42 44 46 46 48 48 46 41 43 43 39 33 30 28 28 24 21 20 19 14 18 17 15 13 14 15 11 9 13
45 44 40 42 48 48 48 49 48 50 41 36 35 33 32 28 27 29 27 24 23 22 14 10 10 15 7 15 11 14 15 14
43 43 42 42 47 50 51 50 49 50 43 36 36 32 31 28 28 28 25 22 22 21 18 15 11 10 14 12 13 15 12 13
45 39 39 42 47 51 52 55 56 52 44 39 37 34 31 29 26 26 26 20 22 18 18 15 15 14 10 11 12 11 14 14
52 46 40 44 46 51 56 61 62 61 49 44 37 33 29 27 23 25 25 23 25 21 14 13 13 13 17 13 14 14 13 19
60 54 42 44 47 51 59 69 68 64 53 45 36 32 29 26 22 20 24 22 16 18 12 13 14 14 12 13 20 18 16 14
66 57 52 39 47 51 58 71 65 65 56 43 36 36 30 26 23 19 23 19 17 16 12 10 16 10 20 29 21 19 13 13
68 59 57 49 46 51 65 68 64 64 56 46 37 30 29 26 23 21 21 19 19 23 15 18 26 33 39 37 28 11 4 20
60 61 58 58 49 56 67 62 62 70 61 47 44 34 34 29 26 29 23 21 21 20 23 24 41 37 39 41 40 37 5 19
74 72 65 61 58 63 70 62 73 72 59 50 43 38 34 31 28 26 24 22 21 22 25 37 39 38 42 45 48 43 40 43
69 71 69 63 60 70 72 69 76 78 59 54 51 44 40 34 29 26 22 19 16 22 27 30 26 14 26 38 33 27 15 13
60 71 58 65 62 65 69 79 76 72 64 57 59 54 45 35 40 35 21 16 12 19 28 18 11 14 11 5 5 7 15 20
64 67 67 65 61 76 68 76 77 74 61 55 56 49 55 48 36 25 16 15 21 19 5 9 10 11 0 7 7 5 20 19
66 64 67 60 63 75 74 80 73 79 71 64 58 58 55 46 35 30 22 14 12 13 13 15 10 13 13 7 8 8 17 24
70 66 69 66 66 76 84 82 78 68 64 64 58 47 43 36 32 30 27 23 21 17 14 7 5 9 1 10 15 18 19 21
70 69 70 75 73 82 76 75 72 68 64 62 57 52 46 41 35 36 36 29 29 23 20 14 9 1 6 12 16 15 24 26
71 70 74 79 85 75 83 77 80 77 65 60 60 52 48 46 48 43 35 28 31 26 23 10 4 3 8 14 18 22 22 22
72 71 76 93 86 77 77 82 87 77 68 61 56 56 57 46 39 36 36 31 25 26 17 9 2 6 8 13 17 20 20 21
75 72 75 104 83 82 80 81 83 74 65 64 63 60 51 44 41 37 28 29 27 17 10 5 3 8 14 16 18 17 19 17
76 71 60 42 82 80 83 86 90 77 71 79 71 61 49 46 40 31 33 30 22 15 12 10 9 11 13 14 14 16 17 18
Wind_Direction_500mb
216 205 199 197 193 188 189 186 183 179 183 193 181 190 187 187 185 189 169 191 193 188 231 240 240 247 256 288 279 313 301 271
217 217 210 201 195 193 190 186 184 179 185 183 180 181 188 182 186 185 182 186 206 191 207 220 221 257 220 243 255 247 254 271
218 218 217 207 198 193 191 187 185 182 185 181 180 183 184 183 191 190 194 181 205 196 206 196 231 221 255 240 253 263 273 285
212 214 217 211 202 194 191 193 190 183 184 181 181 181 186 181 190 197 189 180 216 199 203 207 220 220 226 249 259 262 280 280
226 220 218 212 202 195 194 197 194 187 182 182 181 185 181 183 189 195 184 177 227 181 202 211 231 234 228 239 256 269 275 269
227 225 223 212 205 196 196 204 204 190 180 185 180 185 179 181 185 193 182 190 206 182 207 224 226 222 247 256 257 259 276 309
229 226 217 212 204 197 195 209 204 188 182 182 177 193 174 177 178 183 181 184 193 174 192 230 215 226 236 237 244 257 286 289
222 213 213 212 206 200 199 206 200 185 183 179 177 181 172 173 172 174 199 176 187 185 195 206 227 218 229 232 219 183 317 322
218 213 208 211 208 194 201 202 193 178 182 177 177 178 172 169 167 183 167 179 201 217 208 224 233 234 239 243 245 240 281 338
223 219 212 204 200 190 199 200 184 180 171 176 175 169 169 168 171 165 175 208 226 232 217 233 253 252 254 262 271 270 247 266
217 213 207 204 191 193 195 190 184 179 173 171 165 164 162 161 169 169 193 207 213 233 261 244 256 252 267 270 271 265 294 332
211 206 197 199 188 185 193 182 188 180 173 167 165 163 159 165 163 179 180 203 245 243 233 267 274 219 234 254 78 43 339 340
215 198 201 187 188 190 186 186 180 179 168 170 160 165 171 175 179 160 175 188 221 246 158 157 223 211 102 113 128 351 326 327
211 197 196 182 190 184 180 185 178 179 161 165 175 174 175 170 159 143 134 175 164 132 145 124 109 138 149 179 277 314 317 320
204 194 182 187 183 178 174 178 167 163 161 169 175 173 159 145 139 130 147 167 160 151 150 191 192 199 280 325 315 330 330 329
193 190 184 180 176 170 166 164 158 162 166 164 168 153 147 133 133 141 166 161 151 164 186 157 168 263 310 328 318 322 336 331
186 182 186 175 165 162 162 161 156 165 163 157 152 143 130 149 163 171 171 150 149 154 159 155 147 247 297 315 319 326 332 346
185 177 175 154 165 162 159 160 155 158 154 148 139 135 160 167 159 152 149 150 158 162 171 162 206 300 339 340 350 352 3 11
181 171 179 162 155 159 161 156 150 148 145 140 141 156 159 149 152 150 152 154 152 150 151 163 61 6 1 0 14 22 27 19
170 167 155 136 146 154 156 151 150 143 143 153 158 159 145 146 147 148 146 145 148 151 105 82 45 19 20 38 38 31 22 15
Wind_Speed_850mb
39 34 37 42 44 46 46 48 48 46 41 43 43 39 33 30 28 28 24 21 20 19 14 18 17 15 13 14 15 11 9 13
45 44 40 42 48 48 48 49 48 50 41 36 35 33 32 28 27 29 27 24 23 22 14 10 10 15 7 15 11 14 15 14
43 43 42 42 47 50 51 50 49 50 43 36 36 32 31 28 28 28 25 22 22 21 18 15 11 10 14 12 13 15 12 13
45 39 39 42 47 51 52 55 56 52 44 39 37 34 31 29 26 26 26 20 22 18 18 15 15 14 10 11 12 11 14 14
52 46 40 44 46 51 56 61 62 61 49 44 37 33 29 27 23 25 25 23 25 21 14 13 13 13 17 13 14 14 13 19
60 54 42 44 47 51 59 69 68 64 53 45 36 32 29 26 22 20 24 22 16 18 12 13 14 14 12 13 20 18 16 14
66 57 52 39 47 51 58 71 65 65 56 43 36 36 30 26 23 19 23 19 17 16 12 10 16 10 20 29 21 19 13 13
68 59 57 49 46 51 65 68 64 64 56 46 37 30 29 26 23 21 21 19 19 23 15 18 26 33 39 37 28 11 4 20
60 61 58 58 49 56 67 62 62 70 61 47 44 34 34 29 26 29 23 21 21 20 23 24 41 37 39 41 40 37 5 19
74 72 65 61 58 63 70 62 73 72 59 50 43 38 34 31 28 26 24 22 21 22 25 37 39 38 42 45 48 43 40 43
69 71 69 63 60 70 72 69 76 78 59 54 51 44 40 34 29 26 22 19 16 22 27 30 26 14 26 38 33 27 15 13
60 71 58 65 62 65 69 79 76 72 64 57 59 54 45 35 40 35 21 16 12 19 28 18 11 14 11 5 5 7 15 20
64 67 67 65 61 76 68 76 77 74 61 55 56 49 55 48 36 25 16 15 21 19 5 9 10 11 0 7 7 5 20 19
66 64 67 60 63 75 74 80 73 79 71 64 58 58 55 46 35 30 22 14 12 13 13 15 10 13 13 7 8 8 17 24
70 66 69 66 66 76 84 82 78 68 64 64 58 47 43 36 32 30 27 23 21 17 14 7 5 9 1 10 15 18 19 21
70 69 70 75 73 82 76 75 72 68 64 62 57 52 46 41 35 36 36 29 29 23 20 14 9 1 6 12 16 15 24 26
71 70 74 79 85 75 83 77 80 77 65 60 60 52 48 46 48 43 35 28 31 26 23 10 4 3 8 14 18 22 22 22
72 71 76 93 86 77 77 82 87 77 68 61 56 56 57 46 39 36 36 31 25 26 17 9 2 6 8 13 17 20 20 21
75 72 75 104 83 82 80 81 83 74 65 64 63 60 51 44 41 37 28 29 27 17 10 5 3 8 14 16 18 17 19 17
76 71 60 42 82 80 83 86 90 77 71 79 71 61 49 46 40 31 33 30 22 15 12 10 9 11 13 14 14 16 17 18
Wind_Direction_850mb
216 205 199 197 193 188 189 186 183 179 183 193 181 190 187 187 185 189 169 191 193 188 231 240 240 247 256 288 279 313 301 271
217 217 210 201 195 193 190 186 184 179 185 183 180 181 188 182 186 185 182 186 206 191 207 220 221 257 220 243 255 247 254 271
218 218 217 207 198 193 191 187 185 182 185 181 180 183 184 183 191 190 194 181 205 196 206 196 231 221 255 240 253 263 273 285
212 214 217 211 202 194 191 193 190 183 184 181 181 181 186 181 190 197 189 180 216 199 203 207 220 220 226 249 259 262 280 280
226 220 218 212 202 195 194 197 194 187 182 182 181 185 181 183 189 195 184 177 227 181 202 211 231 234 228 239 256 269 275 269
227 225 223 212 205 196 196 204 204 190 180 185 180 185 179 181 185 193 182 190 206 182 207 224 226 222 247 256 257 259 276 309
229 226 217 212 204 197 195 209 204 188 182 182 177 193 174 177 178 183 181 184 193 174 192 230 215 226 236 237 244 257 286 289
222 213 213 212 206 200 199 206 200 185 183 179 177 181 172 173 172 174 199 176 187 185 195 206 227 218 229 232 219 183 317 322
218 213 208 211 208 194 201 202 193 178 182 177 177 178 172 169 167 183 167 179 201 217 208 224 233 234 239 243 245 240 281 338
223 219 212 204 200 190 199 200 184 180 171 176 175 169 169 168 171 165 175 208 226 232 217 233 253 252 254 262 271 270 247 266
217 213 207 204 191 193 195 190 184 179 173 171 165 164 162 161 169 169 193 207 213 233 261 244 256 252 267 270 271 265 294 332
211 206 197 199 188 185 193 182 188 180 173 167 165 163 159 165 163 179 180 203 245 243 233 267 274 219 234 254 78 43 339 340
215 198 201 187 188 190 186 186 180 179 168 170 160 165 171 175 179 160 175 188 221 246 158 157 223 211 102 113 128 351 326 327
211 197 196 182 190 184 180 185 178 179 161 165 175 174 175 170 159 143 134 175 164 132 145 124 109 138 149 179 277 314 317 320
204 194 182 187 183 178 174 178 167 163 161 169 175 173 159 145 139 130 147 167 160 151 150 191 192 199 280 325 315 330 330 329
193 190 184 180 176 170 166 164 158 162 166 164 168 153 147 133 133 141 166 161 151 164 186 157 168 263 310 328 318 322 336 331
186 182 186 175 165 162 162 161 156 165 163 157 152 143 130 149 163 171 171 150 149 154 159 155 147 247 297 315 319 326 332 346
185 177 175 154 165 162 159 160 155 158 154 148 139 135 160 167 159 152 149 150 158 162 171 162 206 300 339 340 350 352 3 11
181 171 179 162 155 159 161 156 150 148 145 140 141 156 159 149 152 150 152 154 152 150 151 163 61 6 1 0 14 22 27 19
170 167 155 136 146 154 156 151 150 143 143 153 158 159 145 146 147 148 146 145 148 151 105 82 45 19 20 38 38 31 22 15